FW7106 Weather Reports


time (UTC)temp
C
wind
direction
speed
KPH
gust
KPH
rain 1hr
cm
rain 24hr
cm
rain mn
cm
humidity
%
barometer
mb
20260509201236 33 293 1.6 1.6 0.00 0.00 0.00 63 1007.7
20260509200732 34 291 1.6 1.6 0.00 0.00 0.00 63 1007.5
20260509200227 35 277 1.6 3.2 0.00 0.00 0.00 62 1007.5
20260509195723 34 323 0.0 0.0 0.00 0.00 0.00 65 1007.5
20260509195218 33 342 0.0 0.0 0.00 0.00 0.00 68 1007.6
20260509194713 32 344 0.0 0.0 0.00 0.00 0.00 71 1007.6
20260509194210 32 102 3.2 3.2 0.00 0.00 0.00 70 1007.5
20260509193707 31 91 0.0 0.0 0.00 0.00 0.00 73 1007.5
20260509193206 32 150 3.2 4.8 0.00 0.00 0.00 68 1007.7
20260509192703 32 188 1.6 1.6 0.00 0.00 0.00 70 1007.9
20260509192158 32 41 1.6 1.6 0.00 0.00 0.00 70 1007.8
20260509191654 32 154 1.6 1.6 0.00 0.00 0.00 70 1007.9
20260509191150 32 270 0.0 0.0 0.00 0.00 0.00 70 1008.1
20260509190646 32 10 0.0 1.6 0.00 0.00 0.00 71 1008.4
20260509190144 32 319 1.6 1.6 0.00 0.00 0.00 71 1008.3
20260509185642 32 321 1.6 1.6 0.00 0.00 0.00 71 1008.3
20260509185137 32 311 0.0 0.0 0.00 0.00 0.00 71 1008.3
20260509184635 31 331 1.6 1.6 0.00 0.00 0.00 73 1008.4
20260509184132 31 338 3.2 3.2 0.00 0.00 0.00 76 1008.3
20260509183628 32 277 6.4 8.0 0.00 0.00 0.00 73 1008.5
20260509183123 31 297 0.0 0.0 0.00 0.00 0.00 75 1008.6
20260509182620 31 204 3.2 3.2 0.00 0.00 0.00 73 1008.8
20260509182117 31 340 3.2 3.2 0.00 0.00 0.00 74 1008.9
20260509181615 31 309 1.6 1.6 0.00 0.00 0.00 74 1008.9
20260509181112 31 273 1.6 1.6 0.00 0.00 0.00 75 1008.9
20260509180608 30 216 0.0 1.6 0.00 0.00 0.00 74 1008.8
20260509180105 31 279 1.6 1.6 0.00 0.00 0.00 74 1008.9
20260509175601 30 253 1.6 1.6 0.00 0.00 0.00 77 1008.9
20260509175058 31 272 4.8 4.8 0.00 0.00 0.00 78 1009.1
20260509174554 31 358 0.0 1.6 0.00 0.00 0.00 72 1009.3
20260509174049 30 345 3.2 3.2 0.00 0.00 0.00 75 1009.3
20260509173544 30 279 1.6 1.6 0.00 0.00 0.00 80 1009.3
20260509173040 30 291 1.6 1.6 0.00 0.00 0.00 79 1009.6
20260509172538 30 254 1.6 3.2 0.00 0.00 0.00 78 1009.6
20260509172033 30 242 4.8 4.8 0.00 0.00 0.00 78 1009.7
20260509171529 29 239 1.6 1.6 0.00 0.00 0.00 79 1009.6
20260509171026 28 249 4.8 4.8 0.00 0.00 0.00 80 1009.4
20260509170522 28 273 3.2 3.2 0.00 0.00 0.00 82 1009.4
20260509170018 29 216 4.8 8.0 0.00 0.00 0.00 79 1009.4
20260509165516 28 254 8.0 9.7 0.00 0.00 0.00 81 1009.8
20260509165013 28 253 8.0 8.0 0.00 0.00 0.00 83 1009.6
20260509164509 28 254 4.8 4.8 0.00 0.00 0.00 82 1009.5
20260509164004 28 259 3.2 3.2 0.00 0.00 0.00 82 1009.8
20260509163502 28 242 3.2 3.2 0.00 0.00 0.00 84 1009.6
20260509163001 28 225 1.6 3.2 0.00 0.00 0.00 84 1009.5
20260509162500 27 247 4.8 4.8 0.00 0.00 0.00 86 1009.6
20260509161955 27 212 1.6 3.2 0.00 0.00 0.00 86 1009.7
20260509161452 27 248 3.2 3.2 0.00 0.00 0.00 86 1009.3
20260509160947 27 234 6.4 8.0 0.00 0.00 0.00 87 1009.2
20260509160444 27 227 4.8 4.8 0.00 0.00 0.00 86 1009.2
20260509155938 27 221 4.8 4.8 0.00 0.00 0.00 87 1009.4
20260509155435 27 241 4.8 4.8 0.00 0.00 0.00 88 1009.3
20260509154932 27 182 4.8 4.8 0.00 0.00 0.00 88 1009.1
20260509154428 26 184 4.8 4.8 0.00 0.00 0.00 88 1009.1
20260509153926 27 247 6.4 8.0 0.00 0.00 0.00 89 1009.0
20260509153422 26 200 1.6 1.6 0.00 0.00 0.00 90 1009.1
20260509152920 26 228 1.6 3.2 0.00 0.00 0.00 90 1009.1
20260509152415 26 193 1.6 3.2 0.00 0.00 0.00 90 1009.4
20260509151912 26 172 1.6 3.2 0.00 0.00 0.00 92 1009.2
20260509151408 25 181 1.6 3.2 0.00 0.00 0.00 93 1009.3
20260509150907 25 238 3.2 3.2 0.00 0.00 0.00 93 1009.4
20260509150404 25 215 0.0 0.0 0.00 0.00 0.00 94 1009.5
20260509145902 24 203 1.6 3.2 0.00 0.00 0.00 95 1009.5
20260509145401 24 249 4.8 4.8 0.00 0.00 0.00 95 1009.5
20260509144858 24 217 4.8 4.8 0.00 0.00 0.00 95 1009.7
20260509144355 23 227 1.6 3.2 0.00 0.00 0.00 96 1009.6
20260509143852 23 263 1.6 1.6 0.00 0.00 0.00 96 1009.9
20260509143349 23 263 3.2 3.2 0.00 0.00 0.00 96 1009.6
20260509142845 23 234 3.2 3.2 0.00 0.00 0.00 96 1009.7
20260509142342 23 221 0.0 0.0 0.00 0.00 0.00 96 1009.8
20260509141837 23 227 1.6 1.6 0.00 0.00 0.00 96 1009.9
20260509141335 23 224 3.2 3.2 0.00 0.00 0.00 96 1009.6
20260509140831 23 218 3.2 3.2 0.00 0.00 0.00 97 1009.6
20260509140328 23 238 1.6 3.2 0.00 0.00 0.00 97 1009.5
20260509135826 23 225 3.2 3.2 0.00 0.00 0.00 97 1009.7
20260509135323 23 244 1.6 1.6 0.00 0.00 0.00 97 1009.8
20260509134821 23 220 1.6 3.2 0.00 0.00 0.00 98 1009.7
20260509134318 23 228 0.0 1.6 0.00 0.00 0.00 98 1009.9
20260509133815 23 234 0.0 0.0 0.00 0.00 0.00 98 1009.6
20260509133311 23 219 0.0 0.0 0.00 0.00 0.00 98 1009.7
20260509132810 23 189 0.0 0.0 0.00 0.00 0.00 98 1009.7
20260509132308 23 226 0.0 0.0 0.00 0.00 0.00 98 1009.7
20260509131804 22 250 0.0 0.0 0.00 0.00 0.00 98 1009.9
20260509131301 22 251 0.0 0.0 0.00 0.00 0.00 98 1010.0
20260509130757 22 251 0.0 0.0 0.00 0.00 0.00 98 1009.8
20260509130253 22 253 0.0 0.0 0.00 0.00 0.00 98 1010.0
20260509125750 22 253 0.0 0.0 0.00 0.00 0.00 98 1010.0
20260509125247 22 253 0.0 0.0 0.00 0.00 0.00 98 1009.8
20260509124743 22 253 0.0 0.0 0.00 0.00 0.00 98 1009.8
20260509124240 22 254 0.0 0.0 0.00 0.00 0.00 98 1009.7
20260509123738 22 258 0.0 0.0 0.00 0.00 0.00 98 1009.7
20260509123235 22 258 0.0 0.0 0.00 0.00 0.00 98 1009.6
20260509122731 22 256 0.0 0.0 0.00 0.00 0.00 98 1009.5
20260509122227 22 247 0.0 0.0 0.00 0.00 0.00 98 1009.5
20260509121725 22 314 0.0 0.0 0.00 0.00 0.00 98 1009.3
20260509121222 22 317 0.0 0.0 0.00 0.00 0.00 98 1009.2
20260509120720 22 317 0.0 0.0 0.00 0.00 0.00 98 1009.3
20260509120218 22 317 0.0 0.0 0.00 0.00 0.00 98 1009.4
20260509115715 22 317 0.0 0.0 0.00 0.00 0.00 98 1009.2
20260509115212 22 316 0.0 0.0 0.00 0.00 0.00 98 1009.4
20260509114711 22 316 0.0 0.0 0.00 0.00 0.00 98 1009.6
20260509114209 22 317 0.0 0.0 0.00 0.00 0.00 98 1009.6
20260509113707 22 316 0.0 0.0 0.00 0.00 0.00 98 1009.8
20260509113204 22 316 0.0 0.0 0.00 0.00 0.00 98 1010.0
20260509112701 22 316 0.0 0.0 0.00 0.00 0.00 98 1010.0
20260509112158 22 315 0.0 0.0 0.00 0.00 0.00 98 1010.0
20260509111655 22 315 0.0 0.0 0.00 0.00 0.00 98 1009.8
20260509111151 22 315 0.0 0.0 0.00 0.00 0.00 98 1009.9
20260509110649 22 315 0.0 0.0 0.00 0.00 0.00 98 1009.8
20260509110146 22 315 0.0 0.0 0.00 0.00 0.00 98 1009.9
20260509105644 22 316 0.0 0.0 0.00 0.00 0.00 98 1010.1
20260509105141 22 317 0.0 0.0 0.00 0.00 0.00 98 1009.6
20260509104638 22 317 0.0 0.0 0.00 0.00 0.00 98 1009.6
20260509104135 22 321 0.0 0.0 0.00 0.00 0.00 98 1009.7
20260509103633 22 357 0.0 0.0 0.00 0.00 0.00 98 1009.7
20260509103130 22 357 0.0 0.0 0.00 0.00 0.00 98 1009.5
20260509102628 22 359 0.0 0.0 0.00 0.00 0.00 98 1009.4
20260509102125 22 336 0.0 0.0 0.00 0.00 0.00 98 1009.3
20260509101621 22 336 0.0 0.0 0.00 0.00 0.00 98 1009.8
20260509101118 22 336 0.0 0.0 0.00 0.00 0.00 98 1010.0
20260509100615 22 336 0.0 0.0 0.00 0.00 0.00 98 1009.7
20260509100112 22 70 0.0 0.0 0.00 0.00 0.00 98 1009.5
20260509095608 22 139 0.0 0.0 0.00 0.00 0.00 98 1009.5
20260509095106 22 142 0.0 0.0 0.00 0.00 0.00 98 1009.0
20260509094602 22 146 0.0 0.0 0.00 0.00 0.00 98 1009.2
20260509094059 22 146 0.0 0.0 0.00 0.00 0.00 98 1009.1
20260509093558 22 146 0.0 0.0 0.00 0.00 0.00 98 1009.0
20260509093055 22 146 0.0 0.0 0.00 0.00 0.00 98 1008.7
20260509092552 22 146 0.0 0.0 0.00 0.00 0.00 98 1008.8
20260509092051 22 146 0.0 0.0 0.00 0.00 0.00 98 1008.9
20260509091548 22 146 0.0 0.0 0.00 0.00 0.00 98 1009.1
20260509091044 22 146 0.0 0.0 0.00 0.00 0.00 97 1008.9
20260509090542 22 146 0.0 0.0 0.00 0.00 0.00 97 1008.7
20260509090040 22 146 0.0 0.0 0.00 0.00 0.00 97 1008.8
20260509085537 22 146 1.6 1.6 0.00 0.00 0.00 97 1008.8
20260509085032 22 146 0.0 0.0 0.00 0.00 0.00 97 1009.1
20260509084530 22 145 0.0 0.0 0.00 0.00 0.00 97 1009.0
20260509084027 22 147 1.6 1.6 0.00 0.00 0.00 97 1009.1
20260509083524 22 143 0.0 1.6 0.00 0.00 0.00 97 1009.1
20260509083021 22 205 0.0 0.0 0.00 0.00 0.00 97 1009.4
20260509082518 22 207 0.0 0.0 0.00 0.00 0.00 97 1009.5
20260509082015 22 207 0.0 0.0 0.00 0.00 0.00 97 1009.6
20260509081513 22 208 0.0 0.0 0.00 0.00 0.00 97 1009.7
20260509081009 22 209 0.0 0.0 0.00 0.00 0.00 97 1009.6
20260509080507 22 209 0.0 0.0 0.00 0.00 0.00 97 1009.7
20260509080005 22 209 0.0 0.0 0.00 0.00 0.00 97 1009.7
20260509075502 22 209 0.0 0.0 0.00 0.00 0.00 97 1009.8
20260509075000 22 209 0.0 0.0 0.00 0.00 0.00 96 1009.7
20260509074457 22 209 0.0 0.0 0.00 0.00 0.00 96 1009.7
20260509073953 22 209 0.0 0.0 0.00 0.00 0.00 96 1009.5
20260509073450 22 209 0.0 0.0 0.00 0.00 0.00 96 1009.6
20260509072946 22 209 0.0 0.0 0.00 0.00 0.00 96 1009.5
20260509072443 22 209 0.0 0.0 0.00 0.00 0.00 96 1009.5
20260509071940 22 208 0.0 0.0 0.00 0.00 0.00 96 1009.4
20260509071436 22 208 0.0 0.0 0.00 0.00 0.00 96 1009.4
20260509070934 22 208 0.0 0.0 0.00 0.00 0.00 96 1009.4
20260509070431 22 199 0.0 0.0 0.00 0.00 0.00 96 1009.4
20260509065926 22 167 0.0 1.6 0.00 0.00 0.00 96 1009.4
20260509065422 22 190 0.0 1.6 0.00 0.00 0.00 96 1009.3
20260509064919 22 147 0.0 0.0 0.00 0.00 0.00 96 1009.0
20260509064417 22 176 1.6 1.6 0.00 0.00 0.00 96 1009.1
20260509063914 22 159 4.8 4.8 0.00 0.00 0.00 96 1009.2
20260509063410 22 151 3.2 3.2 0.00 0.00 0.00 96 1009.2
20260509062907 22 179 0.0 0.0 0.00 0.00 0.00 96 1009.2
20260509062404 22 188 0.0 1.6 0.00 0.00 0.00 96 1009.4
20260509061902 22 187 1.6 1.6 0.00 0.00 0.00 96 1009.2
20260509061400 22 142 0.0 1.6 0.00 0.00 0.00 96 1009.2
20260509060856 22 126 4.8 9.7 0.00 0.00 0.00 96 1009.2
20260509060353 22 121 0.0 1.6 0.00 0.00 0.00 96 1009.1
20260509055848 22 135 4.8 4.8 0.00 0.00 0.00 96 1009.2
20260509055344 22 176 6.4 9.7 0.00 0.00 0.00 96 1009.2
20260509054841 22 118 1.6 3.2 0.00 0.00 0.00 96 1009.2
20260509054338 22 132 6.4 8.0 0.00 0.00 0.00 96 1009.5
20260509053836 22 131 4.8 4.8 0.00 0.00 0.00 96 1009.2
20260509053333 22 87 4.8 4.8 0.00 0.00 0.00 96 1009.4
20260509052832 22 127 1.6 1.6 0.00 0.00 0.00 96 1009.2
20260509052329 22 115 4.8 4.8 0.00 0.00 0.00 96 1009.4
20260509051826 22 112 3.2 3.2 0.00 0.00 0.00 96 1009.3
20260509051324 22 152 6.4 9.7 0.00 0.00 0.00 96 1009.2
20260509050820 22 128 3.2 3.2 0.00 0.00 0.00 96 1009.1
20260509050317 22 146 3.2 4.8 0.00 0.00 0.00 96 1009.2
20260509045814 22 186 3.2 4.8 0.00 0.00 0.00 96 1009.1
20260509045311 22 125 4.8 4.8 0.00 0.00 0.00 96 1009.2
20260509044808 22 115 4.8 8.0 0.00 0.00 0.00 96 1009.3
20260509044306 22 146 3.2 4.8 0.00 0.00 0.00 96 1009.2
20260509043802 22 134 1.6 3.2 0.00 0.00 0.00 96 1009.2
20260509043258 22 99 1.6 1.6 0.00 0.00 0.00 96 1009.0
20260509042754 22 119 3.2 3.2 0.00 0.00 0.00 96 1009.0
20260509042251 22 137 4.8 4.8 0.00 0.00 0.00 96 1008.9
20260509041747 22 80 4.8 8.0 0.00 0.00 0.00 95 1009.0
20260509041245 22 124 4.8 4.8 0.00 0.00 0.00 95 1009.1
20260509040743 22 166 3.2 4.8 0.00 0.00 0.00 95 1009.1
20260509040240 23 160 3.2 4.8 0.00 0.00 0.00 95 1009.3
20260509035736 23 102 3.2 3.2 0.00 0.00 0.00 95 1009.1
20260509035233 23 107 0.0 1.6 0.00 0.00 0.00 95 1009.1
20260509034730 23 99 3.2 3.2 0.00 0.00 0.00 95 1009.0
20260509034228 23 116 4.8 4.8 0.00 0.00 0.00 95 1008.9
20260509033725 23 78 1.6 3.2 0.00 0.00 0.00 95 1008.5
20260509033222 23 104 3.2 3.2 0.00 0.00 0.00 95 1008.7
20260509032719 23 92 1.6 1.6 0.00 0.00 0.00 95 1008.9
20260509032216 23 124 1.6 3.2 0.00 0.00 0.00 95 1008.6
20260509031713 23 103 3.2 4.8 0.00 0.00 0.00 95 1008.9
20260509031211 23 160 1.6 1.6 0.00 0.00 0.00 95 1008.9
20260509030709 23 124 1.6 1.6 0.00 0.00 0.00 95 1008.9
20260509030206 23 89 3.2 4.8 0.00 0.00 0.00 95 1008.7
20260509025702 23 115 1.6 3.2 0.00 0.00 0.00 95 1008.7
20260509025158 23 107 0.0 0.0 0.00 0.00 0.00 95 1008.6
20260509024653 23 73 0.0 0.0 0.00 0.00 0.00 95 1008.4
20260509024149 23 88 0.0 1.6 0.00 0.00 0.00 95 1008.2
20260509023648 23 94 0.0 1.6 0.00 0.00 0.00 95 1008.3
20260509023144 23 129 1.6 1.6 0.00 0.00 0.00 95 1008.4
20260509022640 23 102 3.2 3.2 0.00 0.00 0.00 95 1008.1
20260509022138 23 129 0.0 0.0 0.00 0.00 0.00 94 1008.1
20260509021635 23 134 0.0 0.0 0.00 0.00 0.00 94 1007.9
20260509021132 23 136 1.6 3.2 0.00 0.00 0.00 94 1008.0
20260509020630 23 132 0.0 0.0 0.00 0.00 0.00 94 1008.0
20260509020127 23 136 3.2 3.2 0.00 0.00 0.00 94 1007.7
20260509015626 23 102 3.2 3.2 0.00 0.00 0.00 94 1007.7
20260509015123 23 103 1.6 1.6 0.00 0.00 0.00 94 1007.6
20260509014619 23 131 1.6 1.6 0.00 0.00 0.00 94 1007.9
20260509014116 23 84 3.2 3.2 0.00 0.00 0.00 94 1007.8
20260509013613 23 148 1.6 1.6 0.00 0.00 0.00 94 1008.0
20260509013108 23 141 1.6 1.6 0.00 0.00 0.00 93 1007.8
20260509012605 23 133 3.2 3.2 0.00 0.00 0.00 93 1007.9
20260509012102 23 86 0.0 0.0 0.00 0.00 0.00 93 1007.4
20260509011600 24 86 0.0 0.0 0.00 0.00 0.00 93 1007.4
20260509011057 24 86 0.0 0.0 0.00 0.00 0.00 92 1007.5
20260509010555 24 86 0.0 0.0 0.00 0.00 0.00 92 1007.6
20260509010051 25 85 0.0 0.0 0.00 0.00 0.00 92 1007.6
20260509005549 25 81 0.0 0.0 0.00 0.00 0.00 92 1007.8
20260509005044 25 109 0.0 0.0 0.00 0.00 0.00 92 1007.5
20260509004541 25 72 0.0 0.0 0.00 0.00 0.00 91 1007.6
20260509004038 25 67 0.0 0.0 0.00 0.00 0.00 91 1007.3
20260509003536 25 74 1.6 1.6 0.00 0.00 0.00 91 1007.6
20260509003033 25 38 0.0 0.0 0.00 0.00 0.00 91 1007.6
20260509002531 25 119 3.2 3.2 0.00 0.00 0.00 90 1007.9
20260509002028 25 92 6.4 8.0 0.00 0.00 0.00 90 1007.5
20260509001525 25 50 0.0 1.6 0.00 0.00 0.00 91 1007.5
20260509001021 25 76 1.6 1.6 0.00 0.00 0.00 91 1007.5
20260509000520 25 82 0.0 0.0 0.00 0.00 0.00 90 1007.4
20260509000015 25 118 0.0 0.0 0.00 0.00 0.00 90 1007.8
20260508235513 25 115 1.6 3.2 0.00 0.00 0.00 90 1007.7
20260508235009 25 108 1.6 1.6 0.00 0.00 0.00 89 1007.7
20260508234507 25 90 1.6 1.6 0.00 0.00 0.00 89 1007.6
20260508234004 25 110 0.0 0.0 0.00 0.00 0.00 89 1007.5
20260508233503 25 53 1.6 1.6 0.00 0.00 0.00 89 1007.4
20260508233000 25 51 3.2 3.2 0.00 0.00 0.00 88 1007.5
20260508232457 25 33 3.2 4.8 0.00 0.00 0.00 89 1007.8
20260508231954 25 77 0.0 0.0 0.00 0.00 0.00 88 1007.5
20260508231451 25 74 1.6 1.6 0.00 0.00 0.00 88 1007.6
20260508230948 25 40 0.0 0.0 0.00 0.00 0.00 89 1007.6
20260508230444 25 47 0.0 1.6 0.00 0.00 0.00 88 1007.6
20260508225941 25 21 1.6 1.6 0.00 0.00 0.00 87 1007.5
20260508225438 25 88 1.6 1.6 0.00 0.00 0.00 88 1007.5
20260508224936 25 70 0.0 1.6 0.00 0.00 0.00 88 1007.6
20260508224433 26 98 3.2 3.2 0.00 0.00 0.00 87 1007.5
20260508223930 26 59 1.6 1.6 0.00 0.00 0.00 86 1007.4
20260508223428 26 89 0.0 0.0 0.00 0.00 0.00 87 1007.5
20260508222925 26 77 0.0 0.0 0.00 0.00 0.00 87 1007.4
20260508222423 25 99 0.0 0.0 0.00 0.00 0.00 88 1007.8
20260508221919 25 47 1.6 1.6 0.00 0.00 0.00 87 1007.9
20260508221414 26 159 3.2 3.2 0.00 0.00 0.00 86 1007.8
20260508220911 26 79 3.2 3.2 0.00 0.00 0.00 86 1007.7
20260508220408 26 110 3.2 3.2 0.00 0.00 0.00 86 1007.9
20260508215904 26 125 3.2 4.8 0.00 0.00 0.00 85 1008.0
20260508215401 26 145 1.6 1.6 0.00 0.00 0.00 86 1007.9
20260508214858 26 81 1.6 3.2 0.00 0.00 0.00 86 1007.7
20260508214355 25 140 1.6 3.2 0.00 0.00 0.00 87 1007.8
20260508213851 25 166 1.6 1.6 0.00 0.00 0.00 87 1008.1
20260508213349 25 136 1.6 1.6 0.00 0.00 0.00 87 1008.0
20260508212844 25 138 1.6 1.6 0.00 0.00 0.00 87 1008.3
20260508212341 25 109 1.6 1.6 0.00 0.00 0.00 87 1008.3
20260508211836 25 54 0.0 0.0 0.00 0.00 0.00 86 1008.4
20260508211332 25 124 0.0 1.6 0.00 0.00 0.00 85 1008.4
20260508210830 26 10 0.0 0.0 0.00 0.00 0.00 84 1008.5
20260508210327 26 48 3.2 3.2 0.00 0.00 0.00 83 1008.6
20260508205824 26 90 1.6 1.6 0.00 0.00 0.00 82 1008.4
20260508205320 26 35 1.6 3.2 0.00 0.00 0.00 85 1008.4
20260508204816 26 117 3.2 3.2 0.00 0.00 0.00 84 1008.7
20260508204314 26 31 1.6 1.6 0.00 0.00 0.00 84 1008.8
20260508203810 26 184 0.0 0.0 0.00 0.00 0.00 83 1008.9
20260508203306 26 162 1.6 1.6 0.00 0.00 0.00 84 1008.9
20260508202801 26 35 0.0 1.6 0.00 0.00 0.00 83 1008.9
20260508202259 26 130 1.6 1.6 0.00 0.00 0.00 83 1009.0
20260508201756 25 152 1.6 3.2 0.00 0.00 0.00 86 1008.9